TimeCST,TemperatureF,Dew PointF,Humidity,Sea Level PressureIn,VisibilityMPH,Wind Direction,Wind SpeedMPH,Gust SpeedMPH,PrecipitationIn,Events,Conditions,WindDirDegrees,DateUTC
12:00 AM,61,54,73,30.25,12,WSW,3.5,,,,Mostly Cloudy,250,2013-03-03 06:00:00
5:00 AM,57.2,53.6,88,30.18,6.2,WSW,4.6,-,N/A,,Partly Cloudy,240,2013-03-03 11:00:00
6:00 AM,57,54,87,30.20,12,WSW,5.8,,,,Mostly Cloudy,250,2013-03-03 12:00:00
6:00 AM,57.2,53.6,88,30.18,6.2,WSW,5.8,-,N/A,,Mostly Cloudy,250,2013-03-03 12:00:00
7:00 AM,60.8,55.4,82,30.21,6.2,West,5.8,-,N/A,,Mostly Cloudy,270,2013-03-03 13:00:00
8:00 AM,64.4,55.4,73,30.24,6.2,West,9.2,-,N/A,,Mostly Cloudy,280,2013-03-03 14:00:00
9:00 AM,66,55,58,30.26,12,West,9.2,,,,Partly Cloudy,280,2013-03-03 15:00:00
9:00 AM,66.2,55.4,68,30.26,6.2,West,9.2,-,N/A,,Scattered Clouds,280,2013-03-03 15:00:00
10:00 AM,71.6,57.2,60,30.26,6.2,NW,10.4,-,N/A,,Mostly Cloudy,320,2013-03-03 16:00:00
11:00 AM,73.4,57.2,57,30.24,6.2,NW,8.1,-,N/A,,Scattered Clouds,320,2013-03-03 17:00:00
12:00 PM,75,53,36,30.20,19,WNW,10.4,,,,Mostly Cloudy,290,2013-03-03 18:00:00
12:00 PM,75.2,53.6,47,30.20,6.2,WNW,10.4,-,N/A,,Scattered Clouds,290,2013-03-03 18:00:00
1:00 PM,75.2,53.6,47,30.18,6.2,WNW,11.5,-,N/A,,Scattered Clouds,300,2013-03-03 19:00:00
2:00 PM,78.8,53.6,42,30.14,6.2,WNW,8.1,-,N/A,,Partly Cloudy,300,2013-03-03 20:00:00
3:00 PM,80,54,30,30.12,19,WNW,9.2,,,,Partly Cloudy,300,2013-03-03 21:00:00
3:00 PM,78.8,53.6,42,30.09,6.2,WNW,9.2,-,N/A,,Scattered Clouds,300,2013-03-03 21:00:00
4:00 PM,80.6,53.6,39,30.09,6.2,WNW,9.2,-,N/A,,Partly Cloudy,300,2013-03-03 22:00:00
4:30 PM,80.6,69.8,70,30.09,6.2,ENE,9.2,-,N/A,,Partly Cloudy,70,2013-03-03 22:30:00
5:00 PM,75.2,59.0,57,30.09,6.2,East,9.2,-,N/A,,Partly Cloudy,90,2013-03-03 23:00:00
6:00 PM,73,59,53,30.13,19,East,6.9,,,,Scattered Clouds,90,2013-03-04 00:00:00
6:00 PM,73.4,59.0,61,30.12,-9999.0,East,6.9,-,N/A,,Clear,90,2013-03-04 00:00:00
9:00 PM,66,59,71,30.18,12,South,3.5,,,,Clear,170,2013-03-04 03:00:00